Location: Fontevrault
(47.1823°N, 0.0493°E)
Time: 16:44:18
(UTC+00:00)

Cosmos 2016 Rocket - Pass Details

Date: 16 June 2021
Orbit: 947 x 1000 km, 83.0° (Epoch: 31 July)

Event Time Altitude Azimuth Distance (km) Brightness Sun altitude
Rises 22:02:51 0° 349° (N) 3,631 8.5 -14.6°
Reaches altitude 10° 22:05:21 10° 348° (NNW) 2,680 7.6 -14.8°
Maximum altitude 22:11:26 76° 265° (W) 981 4.0 -15.3°
Enters shadow 22:15:56 19° 182° (S) 2,086 5.2 -15.6°
